Find Kosmos-381

NORAD ID: 4783 Int'l Des: 1970-102 Owner: OKB10 Country: SU operational
LEOCIRCULAR

Aktuelle Ansicht

3D-Globus wird geladen...

About Kosmos-381

Kosmos-381 (NORAD 4783) is a satellite by OKB10 of SU. It operates in LEO, CIRCULAR orbit

Nächste Überflüge

Passes for default location (London). Set your location on the main map for personalized predictions.

Höhenverlauf

Loading altitude history...

Zweizeiliger Elementsatz

1 04783U 70102A 26195.61708111 -.00000006 00000-0 17684-4 0 9997
2 04783 74.0344 325.8989 0031007 338.1663 21.8133 13.75048248789926
Epoch: 14. Juli 2026 • Age: 8 hours

Aktueller Status

Höhe 1005.3 km
Apogäum / Perigäum N/A
Geschwindigkeit 7.34 km/s
Subsatellitenpunkt 3.42°N, 128.18°W
Typ other

Most Searched